TimeMDT,TemperatureF,Dew PointF,Humidity,Sea Level PressureIn,VisibilityMPH,Wind Direction,Wind SpeedMPH,Gust SpeedMPH,PrecipitationIn,Events,Conditions,WindDirDegrees,DateUTC
12:15 AM,57.2,55.4,94,30.10,10.0,Calm,Calm,-,N/A,,Overcast,0,2013-08-08 06:15:00
12:35 AM,57.2,55.4,94,30.09,10.0,North,3.5,-,N/A,,Overcast,350,2013-08-08 06:35:00
12:55 AM,57.2,55.4,94,30.09,10.0,Calm,Calm,-,N/A,,Overcast,0,2013-08-08 06:55:00
1:15 AM,57.2,55.4,94,30.09,5.0,Calm,Calm,-,N/A,,Overcast,0,2013-08-08 07:15:00
1:35 AM,57.2,57.2,100,30.08,7.0,Calm,Calm,-,N/A,,Overcast,0,2013-08-08 07:35:00
1:55 AM,57.2,57.2,100,30.08,7.0,WSW,3.5,-,N/A,,Overcast,250,2013-08-08 07:55:00
2:15 AM,55.4,55.4,100,30.08,10.0,Calm,Calm,-,N/A,,Overcast,0,2013-08-08 08:15:00
2:35 AM,57.2,57.2,100,30.09,10.0,Calm,Calm,-,N/A,,Overcast,0,2013-08-08 08:35:00
2:55 AM,57.2,57.2,100,30.08,5.0,Calm,Calm,-,N/A,,Overcast,0,2013-08-08 08:55:00
3:15 AM,57.2,57.2,100,30.08,10.0,Calm,Calm,-,N/A,,Overcast,0,2013-08-08 09:15:00
3:35 AM,57.2,55.4,94,30.08,10.0,Calm,Calm,-,N/A,,Overcast,0,2013-08-08 09:35:00
3:55 AM,57.2,55.4,94,30.09,7.0,Calm,Calm,-,N/A,,Overcast,0,2013-08-08 09:55:00
4:15 AM,57.2,55.4,94,30.08,5.0,Calm,Calm,-,N/A,,Overcast,0,2013-08-08 10:15:00
4:35 AM,57.2,55.4,94,30.08,10.0,Calm,Calm,-,N/A,,Overcast,0,2013-08-08 10:35:00
4:55 AM,57.2,55.4,94,30.08,5.0,Calm,Calm,-,N/A,,Overcast,0,2013-08-08 10:55:00
5:15 AM,55.4,55.4,100,30.08,5.0,Calm,Calm,-,N/A,,Overcast,0,2013-08-08 11:15:00
5:35 AM,55.4,55.4,100,30.08,4.0,Calm,Calm,-,N/A,,Overcast,0,2013-08-08 11:35:00
5:55 AM,55.4,55.4,100,30.08,2.5,Calm,Calm,-,N/A,,Overcast,0,2013-08-08 11:55:00
6:15 AM,55.4,55.4,100,30.08,2.5,Calm,Calm,-,N/A,,Overcast,0,2013-08-08 12:15:00
6:35 AM,55.4,55.4,100,30.08,1.8,Calm,Calm,-,N/A,,Overcast,0,2013-08-08 12:35:00
6:55 AM,55.4,55.4,100,30.08,1.2,NE,3.5,-,N/A,,Overcast,40,2013-08-08 12:55:00
7:15 AM,55.4,55.4,100,30.08,1.5,NE,3.5,-,N/A,,Overcast,40,2013-08-08 13:15:00
7:35 AM,55.4,55.4,100,30.08,1.0,Calm,Calm,-,N/A,,Overcast,0,2013-08-08 13:35:00
7:55 AM,55.4,55.4,100,30.09,1.0,Calm,Calm,-,N/A,,Overcast,0,2013-08-08 13:55:00
8:15 AM,55.4,55.4,100,30.09,0.8,NE,3.5,-,N/A,,Overcast,50,2013-08-08 14:15:00
8:35 AM,55.4,55.4,100,30.08,1.0,Calm,Calm,-,N/A,,Overcast,0,2013-08-08 14:35:00
8:55 AM,55.4,55.4,100,30.09,1.5,Calm,Calm,-,N/A,,Overcast,0,2013-08-08 14:55:00
9:15 AM,55.4,55.4,100,30.08,1.5,Calm,Calm,-,N/A,,Overcast,0,2013-08-08 15:15:00
9:35 AM,57.2,57.2,100,30.07,1.5,Calm,Calm,-,N/A,,Overcast,0,2013-08-08 15:35:00
9:55 AM,57.2,57.2,100,30.07,1.8,Calm,Calm,-,N/A,,Overcast,0,2013-08-08 15:55:00
10:15 AM,57.2,57.2,100,30.07,2.5,Calm,Calm,-,N/A,,Overcast,0,2013-08-08 16:15:00
10:35 AM,59.0,59.0,100,30.07,1.5,Calm,Calm,-,N/A,,Overcast,0,2013-08-08 16:35:00
10:55 AM,59.0,59.0,100,30.07,1.5,South,3.5,-,N/A,,Overcast,170,2013-08-08 16:55:00
11:15 AM,59.0,59.0,100,30.07,10.0,Calm,Calm,-,N/A,,Overcast,0,2013-08-08 17:15:00
11:35 AM,60.8,60.8,100,30.07,10.0,Calm,Calm,-,N/A,,Overcast,0,2013-08-08 17:35:00
11:55 AM,62.6,60.8,94,30.08,10.0,Calm,Calm,-,N/A,,Overcast,0,2013-08-08 17:55:00
12:15 PM,62.6,60.8,94,30.07,10.0,NW,3.5,-,N/A,,Overcast,320,2013-08-08 18:15:00
12:35 PM,62.6,59.0,88,30.07,10.0,NW,4.6,-,N/A,,Overcast,320,2013-08-08 18:35:00
12:55 PM,64.4,59.0,83,30.07,10.0,NW,3.5,-,N/A,,Overcast,320,2013-08-08 18:55:00
1:15 PM,68.0,59.0,73,30.07,10.0,NW,8.1,-,N/A,,Overcast,310,2013-08-08 19:15:00
1:35 PM,68.0,59.0,73,30.06,10.0,NW,9.2,-,N/A,,Overcast,310,2013-08-08 19:35:00
1:55 PM,68.0,59.0,73,30.06,10.0,NW,10.4,-,N/A,,Mostly Cloudy,320,2013-08-08 19:55:00
2:15 PM,68.0,59.0,73,30.05,10.0,NW,10.4,16.1,N/A,,Mostly Cloudy,320,2013-08-08 20:15:00
2:35 PM,69.8,59.0,68,30.05,10.0,NNW,11.5,-,N/A,,Mostly Cloudy,330,2013-08-08 20:35:00
2:55 PM,68.0,59.0,73,30.05,10.0,NW,10.4,-,N/A,,Scattered Clouds,310,2013-08-08 20:55:00
3:15 PM,69.8,59.0,68,30.04,10.0,NW,12.7,17.3,N/A,,Clear,320,2013-08-08 21:15:00
3:35 PM,69.8,59.0,68,30.04,10.0,NW,12.7,-,N/A,,Scattered Clouds,320,2013-08-08 21:35:00
3:55 PM,69.8,59.0,68,30.04,10.0,NW,13.8,19.6,N/A,,Scattered Clouds,310,2013-08-08 21:55:00
4:15 PM,69.8,59.0,68,30.04,10.0,NW,12.7,19.6,N/A,,Clear,310,2013-08-08 22:15:00
4:35 PM,68.0,59.0,73,30.04,10.0,NW,12.7,-,N/A,,Clear,320,2013-08-08 22:35:00
4:55 PM,69.8,59.0,68,30.04,10.0,WNW,15.0,-,N/A,,Clear,300,2013-08-08 22:55:00
5:15 PM,68.0,57.2,68,30.04,10.0,NW,15.0,21.9,N/A,,Clear,310,2013-08-08 23:15:00
5:35 PM,68.0,57.2,68,30.03,10.0,NW,15.0,-,N/A,,Clear,320,2013-08-08 23:35:00
5:55 PM,68.0,57.2,68,30.03,10.0,NW,16.1,20.7,N/A,,Clear,320,2013-08-08 23:55:00
6:15 PM,68.0,55.4,64,30.02,10.0,NW,12.7,17.3,N/A,,Clear,310,2013-08-09 00:15:00
6:35 PM,64.4,55.4,73,30.02,10.0,NW,17.3,20.7,N/A,,Clear,320,2013-08-09 00:35:00
6:55 PM,62.6,55.4,77,30.01,10.0,NW,13.8,19.6,N/A,,Clear,320,2013-08-09 00:55:00
7:15 PM,62.6,55.4,77,30.01,10.0,NW,10.4,-,N/A,,Clear,310,2013-08-09 01:15:00
7:35 PM,62.6,55.4,77,30.00,10.0,South,5.8,-,N/A,,Clear,180,2013-08-09 01:35:00
7:55 PM,62.6,55.4,77,30.00,10.0,South,4.6,-,N/A,,Clear,170,2013-08-09 01:55:00
8:15 PM,62.6,55.4,77,30.00,10.0,South,3.5,-,N/A,,Clear,190,2013-08-09 02:15:00
8:35 PM,60.8,55.4,82,30.00,10.0,Calm,Calm,-,N/A,,Clear,0,2013-08-09 02:35:00
8:55 PM,62.6,55.4,77,29.99,10.0,Calm,Calm,-,N/A,,Clear,0,2013-08-09 02:55:00
9:15 PM,60.8,53.6,77,29.99,10.0,Calm,Calm,-,N/A,,Clear,0,2013-08-09 03:15:00
9:35 PM,59.0,53.6,82,29.99,10.0,Calm,Calm,-,N/A,,Clear,0,2013-08-09 03:35:00
9:55 PM,59.0,53.6,82,30.00,10.0,SSE,3.5,-,N/A,,Clear,150,2013-08-09 03:55:00
10:15 PM,59.0,53.6,82,30.00,10.0,Calm,Calm,-,N/A,,Clear,0,2013-08-09 04:15:00
10:35 PM,57.2,53.6,88,30.00,10.0,Calm,Calm,-,N/A,,Clear,0,2013-08-09 04:35:00
10:55 PM,57.2,53.6,88,30.00,10.0,South,3.5,-,N/A,,Clear,180,2013-08-09 04:55:00
11:15 PM,55.4,53.6,94,30.00,10.0,Calm,Calm,-,N/A,,Clear,0,2013-08-09 05:15:00
11:35 PM,55.4,53.6,94,30.00,10.0,Calm,Calm,-,N/A,,Clear,0,2013-08-09 05:35:00
11:55 PM,55.4,53.6,94,30.01,10.0,Calm,Calm,-,N/A,,Clear,0,2013-08-09 05:55:00